Siga o Apolo11 no Facebook   Siga o Apolo11 no Twiiter
Ciência, Espaço e Tecnologia




Elementos Keplerianos formato Two Line

Para que um programa de rastreio possa saber a localização exata de qualquer satélite no espaço e assim poder rastreá-lo corretamente, é necessário que ele seja carregado com algumas informações.

Estas informações são chamadas de Elementos Orbitais ou Elementos Keplerianos e consistem em 2 linhas com dezenas de números. Esses números nada mais são que os parâmetros orbitais do satélite, tais como altitude, atitude, excentricidade da órbita, número de órbitas por dia, etc.

Com base nestas informações o programa é capaz de determinar com bastante exatidão a posição de qualquer satélite no espaço e nos informar em qual horário este estará dentro do alcance de nossa estação. Para que isso seja feito com precisão é necessário que os dados estejam sempre bem atualizadas.

Devido aos parâmetros orbitais serem descritos em 2 linhas, estes formato é também conhecido internacionalmente por 2line (leia-se Two Line”).

Para atualizar seu programa de rastreio basta copiar os dados disponibilizados e fornece-los ao programa. Nossos elementos orbitais são atualizados diariamente.

NOAATodos os satélites ambientais da série NOAA
30 DiasSatélites lançados nos últimos 30 dias
ISSSatélites e foguetes relacionados à Estação Espacial Internacional
HAMSatélites construídos por radiomadores
CUBESatélites tipo cubo, com 10 centímetros de lado
METEOSatélites voltados à previsão do tempo
EDUSatélites construídos e operados por universidades
VIS100 satélites mais brilhantes que podem ser vistos a olho nú



Satélites série NOAA
NOAA 1 [-]              
1 04793U 70106A   21272.43479171 -.00000055  00000-0 -68213-4 0  9993
2 04793 101.5979 337.4287 0032019 110.0518 261.5670 12.54000820324875
NOAA 2 (ITOS-D) [-]     
1 06235U 72082A   21272.80762972 -.00000019  00000-0  16687-3 0  9992
2 06235 101.9175 248.7907 0003711 210.7632 212.1370 12.53139361239556
NOAA 3 [-]              
1 06920U 73086A   21272.47493414 -.00000023  00000-0  16796-3 0  9999
2 06920 102.1710 248.5968 0006830  51.7002  60.8722 12.40342362168439
NOAA 4 [-]              
1 07529U 74089A   21272.48118447 -.00000027  00000-0  11499-3 0  9999
2 07529 101.8756 246.7454 0008624 244.3047 229.9106 12.53151183143859
NOAA 5 [-]              
1 09057U 76077A   21272.68361904 -.00000042  00000-0  21419-4 0  9997
2 09057 102.0561 238.8782 0009538 262.1356 271.7366 12.37763131 41704
TIROS N [-]             
1 11060U 78096A   21272.40443589  .00000042  00000-0  41522-4 0  9993
2 11060  98.6769 327.5396 0010931 169.3795 190.7613 14.18324085434604
NOAA 6 [-]              
1 11416U 79057A   21272.45971248  .00000063  00000-0  38899-4 0  9995
2 11416  98.6689 277.8846 0009504 313.4233  46.6160 14.33656088204126
NOAA 7 [-]              
1 12553U 81059A   21272.80473964 -.00000025  00000-0  10215-4 0  9995
2 12553  99.0387 308.4710 0012254 133.5551 226.6643 14.17302578 81099
NOAA 8 [-]              
1 13923U 83022A   21272.70513591  .00000034  00000-0  31023-4 0  9998
2 13923  98.6645 259.6113 0014041 251.4607 108.5049 14.28748278  5430
NOAA 9 [-]              
1 15427U 84123A   21272.81462244  .00000050  00000-0  48408-4 0  9995
2 15427  99.0062 236.6586 0014689 180.7785 238.6766 14.16145060899953
NOAA 10 [-]             
1 16969U 86073A   21272.83040855  .00000035  00000-0  31460-4 0  9998
2 16969  98.5429 259.1772 0012328   2.6200  60.0834 14.28146110823898
NOAA 11 [-]             
1 19531U 88089A   21272.47151724  .00000005  00000-0  23504-4 0  9990
2 19531  98.4091 271.1722 0010582 205.9044 154.1602 14.15279955703900
NOAA 12 [-]             
1 21263U 91032A   21272.53850326  .00000005  00000-0  19819-4 0  9992
2 21263  98.5087 274.8101 0014188  27.3028 332.8895 14.25950558579542
NOAA 13 [-]             
1 22739U 93050A   21272.47280718  .00000041  00000-0  44200-4 0  9990
2 22739  98.4775 260.7159 0009897  17.9306 342.2214 14.12795289450201
NOAA 14 [-]             
1 23455U 94089A   21272.54992754 -.00000007  00000-0  18071-4 0  9997
2 23455  98.4818 307.9381 0009379   1.5526 358.5675 14.14168985379833
NOAA 15 [B]             
1 25338U 98030A   21272.83999314  .00000025  00000-0  28970-4 0  9998
2 25338  98.6755 300.3963 0009925 342.8129  17.2713 14.26060206216121
NOAA 16 [-]             
1 26536U 00055A   21272.44390793 -.00000001  00000-0  22023-4 0  9990
2 26536  98.6766 334.8330 0010478 184.6817 175.4259 14.13287599380480
NOAA 17 [-]             
1 27453U 02032A   21272.88102304  .00000048  00000-0  39285-4 0  9991
2 27453  98.6360 216.6631 0011086 314.4726  45.5546 14.25071283  1758
NOAA 18 [B]             
1 28654U 05018A   21272.77764501  .00000089  00000-0  72231-4 0  9996
2 28654  98.9842 338.0085 0013926 351.9084   8.1861 14.12642060843268
NOAA 19 [+]             
1 33591U 09005A   21272.75087448  .00000022  00000-0  37420-4 0  9996
2 33591  99.1791 296.0182 0013686 196.2164 163.8571 14.12497553651644
SUOMI NPP [+]           
1 37849U 11061A   21272.76445486  .00000017  00000-0  28660-4 0  9992
2 37849  98.7425 210.0689 0001248  64.1361  19.9474 14.19544356514208
NOAA 20 [+]             
1 43013U 17073A   21272.78283944  .00000023  00000-0  31516-4 0  9993
2 43013  98.7257 209.8615 0001406  80.5011 279.6324 14.19555085200242


IMAGENS DE SATÉLITES !    Clique e conheça nosso Vídeo Workshop de sensoriamento remoto e imagens meteorológicas.
Apolo11.com - Todos os direitos reservados - 2001 - 2021
Política de Privacidade

"Governar é roubar, todo mundo sabe disso" - Calígula